IUS R/B(1), 26882

Orbit data source: Space-Track

IUS R/B(1), 26882 is space debris in HEO originally from a launch on Mon, 06 Aug 2001 UTC launched from the Air Force Eastern Test Range (AFETR). Debris objects in space refer to the collection of defunct objects orbiting the Earth. Examples of debris include non-operational satellites, rocket bodies, and fragments generated from explosions, collisions, or faulty payload assembly.

Loading next visibility...
IUS R/B(1) details
Identifier
26882, 2001-033C
Orbit
HEO
Last TLE update1 day ago
Origin
Flag of USUSAF SMC (US)
ManufacturerPW CSD
MissionSpacecraft
Bus & MotorORBUS 21, ORBUS 21
Mass1,164 kg wet, 1,164 kg dry
Launch date (UTC)
2001-08-06 (23 years ago)
Launch vehicleUnknown
Launch site
Air Force Eastern Test Range (AFETR)
Object type
Payload
Rocket body
Debris
Shape & HBRCyl, Unknown HBR
Radar Cross Section8.491 m², Large (>1 m²)

Expand to show TLE details & history

TLE from 1 day ago
0 IUS R/B(1)
1 26882U 01033C   24336.32620469  .00002253  00000-0  99010-3 0  9997
2 26882  27.8602 232.6263 7103718 261.3933  19.5686  2.48839015 48479
Epoch: 2024-12-01T07:49Z
Definitive object data (Epoch: 2024-12-01T07:49:44.085Z)
Latitude0.0007°
Longitude44.62324°
Altitude6,426.154 km
Speed6.703 km/s
True Right ascension15h 30m 53s
True Declination0° 00' 03"
Sunlit
Object was in daylight at TLE epoch
Visualization TLE readout
Latitude20.31057°
Longitude179.84197°
Altitude14,580.932 km
Speed4.551 km/s
Apparent Right ascension23h 51m 23s
Apparent Declination7° 57' 09"
Sunlit
Object is in daylight
Visualization observer readout
Local Sidereal Time08:52:39
Azimuth308.7° NW
Elevation-26.827°
Doppler factor1
Orbital elements
Apogee altitude32,972.343 km
Perigee altitude285.332 km
Semi-major axis23,006.974 km
Eccentricity0.7103718
Inclination27.8602°
RAAN232.6263°
Arg. of periapsis261.3933°
True anomaly98.88508°
Mean anomaly19.5686°
Eccentric anomaly51.35958°
Mean motion0.62195 °/min
BSTAR0.0009901
Orbital period578.83 mins
Loading maneuver chart data...
Loading historical data...
Loading historical data...
Loading historical data...
Loading historical data...
Loading historical data...
Loading historical data...
Loading historical data...
Other satellites on launch #33 in the year 2001 (2001-08-06 UTC)

IUS R/B(1) Visibility forecast

Observer location: undefined°, undefined

Span
Click to sort rows by Start time (UTC) header in descending order
Start Az.
Max El. time (UTC)
Max El. Az.
Max El.
End time (UTC)
End Az.
113 mins2024-12-02 17:46:59.474Z69.513° E2024-12-02 18:51:59.474Z72.07° E11.766°2024-12-02 19:39:59.474Z73.69° E
502 mins2024-12-02 22:44:59.474Z255.515° W2024-12-03 00:54:59.474Z263.609° W33.112°2024-12-03 07:06:59.474Z219.619° SW
|